Crane Lake, MN

1:25 AM CDT on August 17, 2017 (GMT -0500)
Crane Lake

Weather History for KCDD - August, 2013

Change the Weather History Date:

Thursday, August 29, 2013

  Actual Average Record
Temperature  
Mean Temperature 66 °F -  
Max Temperature 75 °F 72 °F 91 °F (2010)
Min Temperature 57 °F 51 °F 37 °F (2007)
Cooling Degree Days 1    
Growing Degree Days 16 (Base 50)    
Moisture  
Dew Point 63 °F    
Average Humidity 92    
Maximum Humidity 100    
Minimum Humidity 78    
Precipitation  
Precipitation 0.25 in - - ()
Sea Level Pressure  
Sea Level Pressure 29.95 in    
Wind  
Wind Speed 1 mph (SSW)    
Max Wind Speed 8 mph    
Max Gust Speed -    
Visibility 6 miles    
Events Fog , Rain , Thunderstorm    
Averages and records for this station are not official NWS values.
T = Trace of Precipitation, MM = Missing Value Source: NWS Daily Summary

Daily Weather History Graph

Daily Weather History Graph

Search for Another Location

Airport or City:

Trip Planner

Search our weather history database for the weather conditions in past years. The results will help you decide how hot, cold, wet, or windy it might be!

Date:

Astronomy

Aug. 29, 2013 Rise Set
Actual Time 6:23 AM CDT 7:56 PM CDT
Civil Twilight 5:51 AM CDT 8:29 PM CDT
Nautical Twilight 5:11 AM CDT 9:08 PM CDT
Astronomical Twilight 4:27 AM CDT 9:51 PM CDT
Moon 12:01 AM CDT (8/29) 3:40 PM CDT (8/29)
Length of Visible Light 14h 38m
Length of Day
13h 32m
Last Quarter, 38% of the Moon is Illuminated
Aug 29
Last Quarter
Sep 5
New
Sep 12
First Quarter
Sep 19
Full
Sep 26
Last Quarter

Hourly Weather History & Observations

Time (CDT) Temp. Dew Point Humidity Pressure Visibility Wind Dir Wind Speed Gust Speed Precip Events Conditions
12:10 AM 62.6 °F 60.8 °F 94% 30.05 in 0.2 mi Calm Calm - N/A Fog Fog
12:30 AM 62.6 °F 60.8 °F 94% 30.04 in 0.2 mi Calm Calm - N/A Fog Fog
12:50 AM 60.8 °F 59.0 °F 94% 30.05 in 0.8 mi Calm Calm - N/A   Overcast
1:11 AM 60.8 °F 59.0 °F 94% 30.04 in 1.0 mi Calm Calm - N/A   Mostly Cloudy
1:30 AM 60.8 °F 57.2 °F 88% 30.04 in 2.0 mi Calm Calm - N/A   Mostly Cloudy
1:50 AM 60.8 °F 57.2 °F 88% 30.04 in 0.2 mi Calm Calm - N/A Fog Fog
2:10 AM 60.8 °F 57.2 °F 88% 30.03 in 2.0 mi Calm Calm - N/A   Mostly Cloudy
2:30 AM 60.8 °F 57.2 °F 88% 30.03 in 3.0 mi Calm Calm - N/A   Scattered Clouds
2:51 AM 60.8 °F 57.2 °F 88% 30.03 in 0.8 mi Calm Calm - N/A   Mist
3:10 AM 59.0 °F 57.2 °F 94% 30.03 in 1.0 mi Calm Calm - N/A   Clear
3:31 AM 59.0 °F 57.2 °F 94% 30.02 in 2.5 mi Calm Calm - N/A   Clear
3:50 AM 57.2 °F 55.4 °F 94% 30.03 in 3.0 mi Calm Calm - N/A   Clear
4:11 AM 57.2 °F 55.4 °F 94% 30.03 in 2.0 mi Calm Calm - N/A   Clear
4:31 AM 57.2 °F 55.4 °F 94% 30.03 in 3.0 mi Calm Calm - N/A   Clear
4:51 AM 57.2 °F 55.4 °F 94% 30.03 in 3.0 mi Calm Calm - N/A   Scattered Clouds
5:10 AM 57.2 °F 55.4 °F 94% 30.03 in 1.8 mi Calm Calm - N/A   Mostly Cloudy
5:31 AM 57.2 °F 55.4 °F 94% 30.03 in 3.0 mi Calm Calm - N/A   Scattered Clouds
5:51 AM 57.2 °F 55.4 °F 94% 30.02 in 1.8 mi Calm Calm - N/A   Mostly Cloudy
6:10 AM 57.2 °F 55.4 °F 94% 30.02 in 0.5 mi Calm Calm - N/A Fog Fog
6:31 AM 57.2 °F 55.4 °F 94% 30.02 in 3.0 mi Calm Calm - N/A   Scattered Clouds
6:51 AM 57.2 °F 55.4 °F 94% 30.02 in 0.8 mi Calm Calm - N/A   Mostly Cloudy
7:10 AM 57.2 °F 55.4 °F 94% 30.02 in 4.0 mi Calm Calm - N/A   Scattered Clouds
7:30 AM 57.2 °F 55.4 °F 94% 30.02 in 7.0 mi Calm Calm - N/A   Clear
7:50 AM 59.0 °F 57.2 °F 94% 30.00 in 4.0 mi Calm Calm - N/A   Clear
8:11 AM 62.6 °F 62.6 °F 100% 30.00 in 10.0 mi Calm Calm - N/A   Clear
8:31 AM 66.2 °F 64.4 °F 94% 30.00 in 10.0 mi Calm Calm - N/A   Clear
8:50 AM 69.8 °F 66.2 °F 88% 30.00 in 10.0 mi Calm Calm - N/A   Clear
9:10 AM 71.6 °F 69.8 °F 94% 29.99 in 10.0 mi Calm Calm - N/A   Clear
9:30 AM 73.4 °F 71.6 °F 94% 29.98 in 10.0 mi SSE 3.5 mph - N/A   Clear
9:50 AM 73.4 °F 71.6 °F 94% 29.99 in 10.0 mi South 4.6 mph - N/A Thunderstorm Clear
10:11 AM 73.4 °F 71.6 °F 94% 29.99 in 10.0 mi South 3.5 mph - N/A   Clear
10:30 AM 73.4 °F 69.8 °F 88% 29.98 in 10.0 mi Calm Calm - N/A   Clear
10:50 AM 71.6 °F 69.8 °F 94% 29.98 in 10.0 mi Calm Calm - N/A   Scattered Clouds
11:10 AM 69.8 °F 68.0 °F 94% 30.00 in 5.0 mi Calm Calm - 0.01 in Rain , Thunderstorm Light Thunderstorms and Rain
11:30 AM - - N/A% 30.06 in - West 4.6 mph - N/A   Unknown
11:51 AM 69.8 °F 66.2 °F 88% 30.05 in 10.0 mi West 3.5 mph - N/A Rain , Thunderstorm Light Thunderstorms and Rain
12:10 PM 68.0 °F 66.2 °F 94% 30.03 in 5.0 mi NW 4.6 mph - N/A Rain , Thunderstorm Rain
12:30 PM 66.2 °F 64.4 °F 94% 30.01 in 2.0 mi Calm Calm - 0.04 in Rain Rain
12:50 PM 66.2 °F 64.4 °F 94% 29.97 in 3.0 mi Calm Calm - 0.08 in Rain Rain
1:10 PM 66.2 °F 64.4 °F 94% 29.95 in 1.8 mi Calm Calm - 0.03 in Rain Rain
1:30 PM 66.2 °F 66.2 °F 100% 29.93 in 5.0 mi SSE 6.9 mph - 0.03 in Rain Light Rain
1:50 PM 66.2 °F 64.4 °F 94% 29.93 in 7.0 mi SE 3.5 mph - 0.03 in Rain Light Rain
2:10 PM 66.2 °F 64.4 °F 94% 29.91 in 5.0 mi Calm Calm - N/A Rain Light Rain
2:30 PM 68.0 °F 66.2 °F 94% 29.88 in 10.0 mi SE 4.6 mph - 0.01 in   Scattered Clouds
2:50 PM 69.8 °F 66.2 °F 88% 29.88 in 10.0 mi SE 4.6 mph - 0.01 in   Scattered Clouds
3:10 PM 71.6 °F 68.0 °F 88% 29.88 in 10.0 mi Calm Calm - N/A   Scattered Clouds
3:31 PM 71.6 °F 68.0 °F 88% 29.88 in 10.0 mi South 5.8 mph - N/A   Mostly Cloudy
3:50 PM 69.8 °F 68.0 °F 94% 29.89 in 10.0 mi South 4.6 mph - N/A   Mostly Cloudy
4:11 PM 71.6 °F 68.0 °F 88% 29.90 in 10.0 mi South 8.1 mph - N/A   Mostly Cloudy
4:30 PM 71.6 °F 69.8 °F 94% 29.88 in 10.0 mi South 5.8 mph - N/A   Mostly Cloudy
4:51 PM 71.6 °F 68.0 °F 88% 29.87 in 10.0 mi SSE 4.6 mph - N/A   Mostly Cloudy
5:11 PM 75.2 °F 69.8 °F 83% 29.86 in 10.0 mi SSE 3.5 mph - N/A   Scattered Clouds
5:30 PM 75.2 °F 68.0 °F 78% 29.86 in 10.0 mi SSE 4.6 mph - N/A   Scattered Clouds
5:50 PM 73.4 °F 68.0 °F 83% 29.85 in 10.0 mi Calm Calm - N/A   Mostly Cloudy
6:10 PM 71.6 °F 66.2 °F 83% 29.84 in 10.0 mi Calm Calm - N/A   Overcast
6:31 PM 71.6 °F 66.2 °F 83% 29.83 in 10.0 mi South 4.6 mph - N/A Thunderstorm Overcast
6:50 PM 71.6 °F 66.2 °F 83% 29.83 in 7.0 mi WSW 3.5 mph - N/A Rain Light Rain
7:10 PM 69.8 °F 66.2 °F 88% 29.84 in 5.0 mi West 4.6 mph - 0.02 in Rain Heavy Rain
7:30 PM 68.0 °F 66.2 °F 94% 29.85 in 10.0 mi NNW 4.6 mph - 0.05 in   Overcast
7:50 PM 68.0 °F 66.2 °F 94% 29.86 in 10.0 mi Calm Calm - 0.05 in   Overcast
8:10 PM 68.0 °F 66.2 °F 94% 29.86 in 7.0 mi Calm Calm - N/A   Overcast
8:30 PM 68.0 °F 66.2 °F 94% 29.87 in 7.0 mi Calm Calm - N/A Rain Light Rain
8:50 PM 68.0 °F 66.2 °F 94% 29.87 in 2.5 mi Calm Calm - 0.07 in Rain Light Rain
9:10 PM 68.0 °F 66.2 °F 94% 29.88 in 10.0 mi North 5.8 mph - N/A   Overcast
9:30 PM 66.2 °F 64.4 °F 94% 29.89 in 10.0 mi NNW 5.8 mph - N/A   Overcast
9:50 PM 66.2 °F 64.4 °F 94% 29.89 in 10.0 mi NNW 3.5 mph - N/A   Overcast
10:11 PM 64.4 °F 64.4 °F 100% 29.88 in 10.0 mi NNW 3.5 mph - N/A   Overcast
10:30 PM 64.4 °F 64.4 °F 100% 29.88 in 10.0 mi Calm Calm - N/A   Overcast
10:50 PM 64.4 °F 64.4 °F 100% 29.88 in 10.0 mi Calm Calm - N/A   Overcast
11:10 PM 64.4 °F 64.4 °F 100% 29.88 in 10.0 mi Calm Calm - N/A   Overcast
11:30 PM 64.4 °F 64.4 °F 100% 29.88 in 10.0 mi Calm Calm - N/A   Mostly Cloudy
11:50 PM 64.4 °F 62.6 °F 94% 29.87 in 10.0 mi NNW 4.6 mph - N/A   Mostly Cloudy